Regional Weather Roundup
Issued by NWS Little Rock, AR

Home | Current Version | Previous Version | Graphics & Text | Print | Product List | Glossary On
Versions: 1 2 3 4 5 6 7 8 9 10 11 12 13 14 15 16 17 18 19 20 21 22 23 24 25 26 27 28 29 30 31 32 33 34 35 36 37 38 39 40 41 42 43 44 45 46 47 48 49 50
000
ASUS44 KLZK 240910
RWRLZK
ARKANSAS STATE WEATHER ROUNDUP
NATIONAL WEATHER SERVICE LITTLE ROCK AR
ISSUED BY NATIONAL WEATHER SERVICE MEMPHIS TN
300 AM CST FRI FEB 24 2017

NOTE: "FAIR" INDICATES FEW OR NO CLOUDS BELOW 12,000 FEET WITH NO
SIGNIFICANT WEATHER AND/OR OBSTRUCTIONS TO VISIBILITY.

ARZ001-003-010-029-241000-
NORTHWEST ARKANSAS

CITY           SKY/WX    TMP DP  RH WIND       PRES   REMARKS
FORT SMITH     CLEAR     69  52  54 W10       29.50R
HARRISON       CLEAR     65  54  67 S6        29.50S
BENTONVILLE    CLEAR     66  52  59 SW12      29.50S
ROGERS         CLEAR     65  53  65 SW13      29.50R
SILOAM SPGS    CLEAR     64  48  55 SW13G18   29.50R
HIGHFILL       CLEAR     66  52  60 SW15      29.50R
$$

ARZ004-005-016-241000-
NORTH CENTRAL ARKANSAS

CITY           SKY/WX    TMP DP  RH WIND       PRES   REMARKS
BATESVILLE     CLEAR     63  54  72 S5        29.58F
FLIPPIN        CLEAR     66  52  59 S8        29.48S
MTN HOME       CLEAR     64  53  67 SW13G21   29.50R
$$

ARZ040-041-241000-
WEST CENTRAL ARKANSAS

CITY           SKY/WX    TMP DP  RH WIND       PRES   REMARKS
MOUNT IDA      CLEAR     65  52  62 VRB3      29.57S
$$

ARZ017-025-026-028-241000-
NORTHEAST ARKANSAS

CITY           SKY/WX    TMP DP  RH WIND       PRES   REMARKS
JONESBORO      CLEAR     60  56  86 S16       29.59F
NEWPORT        CLEAR     63  55  75 S23       29.58F
WALNUT RIDGE   CLEAR     61  54  77 S20       29.57R
BLYTHEVILLE    CLEAR     64  58  80 S16       29.62F
$$

ARZ022-033-042-044-241000-
CENTRAL ARKANSAS

CITY           SKY/WX    TMP DP  RH WIND       PRES   REMARKS
LITTLE ROCK    CLEAR     61  54  77 S14       29.60S
JACKSONVILLE   CLEAR     62  54  75 S9        29.59R
SEARCY         CLEAR     62  56  80 S10       29.62S
HOT SPRINGS    CLEAR     63  54  72 VRB7      29.61S
RUSSELLVILLE   CLEAR     65  54  67 S7        29.55S
$$

ARZ036-241000-
EAST ARKANSAS

CITY           SKY/WX    TMP DP  RH WIND       PRES   REMARKS
WEST MEMPHIS   CLEAR     62  58  86 S15       29.64F
$$

ARZ050-070-073-241000-
SOUTHWEST ARKANSAS

CITY           SKY/WX    TMP DP  RH WIND       PRES   REMARKS
TEXARKANA      CLEAR     60  55  83 S9        29.62R
EL DORADO      CLEAR     60  56  86 S10       29.63F
DEQUEEN        PTCLDY    58  54  86 SE3       29.57S
$$

ARZ056-057-069-241000-
SOUTHEAST ARKANSAS

CITY           SKY/WX    TMP DP  RH WIND       PRES   REMARKS
PINE BLUFF     CLEAR     60  53  77 S8        29.63S
STUTTGART      CLEAR     63  48  59 S15       29.63S
MONTICELLO     CLEAR     60  54  80 S8        29.65F
$$




USA.gov is the U.S. government's official web portal to all federal, state and local government web resources and services.